Wind_Speed
4 4 4 6 5 5 6 7 7 5 5 5 3 2 2 2 3 4 3 4 7 6 6 9 9 11 8 7 9 10 11 11 10 11 11 11 10 10 11 11 12 12 11 14 20 24 25 26 27 27 28 28 28 28 29 30 29 29 28 27 27 26 25 26 26 25 24 23 23 22 22 21 20 19 18 16 15 15 15 15 14 13 12 11 11 11
3 6 6 5 6 6 5 7 6 4 3 3 3 1 2 2 4 5 4 4 5 6 6 8 8 10 9 7 8 10 12 13 12 13 14 14 13 11 11 13 12 10 8 12 16 21 24 25 26 27 27 28 28 28 29 31 31 30 29 29 29 27 27 27 27 27 26 25 23 23 23 22 20 20 19 18 17 16 16 16 15 15 14 13 12 11
3 5 5 4 6 5 3 5 5 4 3 3 3 1 2 2 3 5 4 3 3 5 4 5 7 9 9 7 9 11 13 13 13 14 14 15 14 12 13 12 11 10 9 11 13 18 23 24 26 27 27 29 30 30 30 31 32 31 31 30 29 29 29 29 28 27 26 25 23 22 21 21 20 20 19 18 17 17 16 17 16 16 16 15 13 12
4 4 5 5 5 5 2 3 5 3 2 3 3 3 2 4 1 2 4 3 2 5 3 4 4 6 5 5 9 12 13 11 11 12 10 11 14 14 14 11 10 12 11 12 13 15 20 23 25 25 26 28 29 29 31 32 32 32 32 32 31 30 30 29 29 28 27 24 22 20 19 19 19 19 18 18 18 17 17 17 17 17 17 16 15 14
4 5 4 6 6 6 3 2 5 3 1 2 4 4 3 3 3 4 4 4 1 3 3 3 2 5 3 4 7 8 9 10 9 10 9 10 11 11 10 10 11 12 12 13 13 13 17 21 24 26 27 28 28 29 31 32 32 32 33 33 32 31 30 30 29 28 26 24 22 20 18 17 18 18 18 18 19 18 18 18 18 18 18 17 17 15
5 5 5 7 4 5 4 3 4 5 2 2 3 7 7 5 5 4 4 5 4 4 4 3 2 5 3 3 5 5 8 9 8 9 11 10 10 10 10 11 12 12 11 12 13 13 16 20 23 25 27 27 28 30 32 33 33 33 33 33 33 32 31 31 30 29 27 25 24 22 21 20 20 20 20 21 21 20 19 18 18 18 18 18 18 17
2 2 5 6 4 5 5 5 4 6 4 1 4 8 9 7 6 4 1 1 1 1 3 3 3 4 5 3 4 5 8 9 7 9 12 11 11 11 11 11 12 12 11 11 12 13 15 19 22 24 26 28 29 31 32 32 33 33 33 33 33 33 32 31 31 30 29 27 26 25 25 25 25 24 24 24 22 21 19 18 18 18 18 18 18 17
3 2 2 4 4 5 4 4 5 7 7 2 5 6 9 8 7 6 4 3 3 2 3 3 4 1 4 4 4 5 7 8 8 10 12 12 13 13 12 12 12 13 12 11 12 13 15 19 22 24 27 29 30 31 31 31 32 33 34 34 34 33 33 32 32 31 31 30 28 27 27 26 26 26 25 24 23 21 20 20 20 20 19 18 17 16
2 4 5 5 4 4 5 5 7 9 6 5 6 6 7 8 7 6 5 4 2 2 4 4 2 1 4 5 2 4 6 8 12 13 13 14 15 15 14 13 13 13 13 13 13 14 16 21 24 26 29 30 31 31 31 32 33 34 33 33 33 33 33 33 32 32 32 31 30 29 28 27 27 26 25 23 22 22 22 22 22 21 20 18 17 16
1 4 7 6 5 5 6 7 8 10 5 5 6 5 4 4 3 3 4 4 1 2 4 6 3 2 3 5 3 2 4 7 12 13 12 13 14 14 14 14 14 12 12 13 13 14 18 23 26 27 29 31 32 32 32 33 33 33 33 33 33 34 34 34 34 33 33 32 31 30 29 29 27 25 24 23 22 22 22 23 23 22 21 20 18 17
3 1 3 5 4 5 6 6 7 11 8 4 4 3 3 3 4 3 2 3 2 2 6 6 5 5 1 4 3 1 5 7 7 9 9 11 13 14 14 13 13 12 11 12 12 13 19 24 26 26 28 30 31 31 31 32 32 33 33 33 34 35 34 34 34 34 34 33 33 31 31 30 29 26 25 24 23 22 22 22 23 23 22 21 19 18
6 4 1 1 1 1 1 2 3 6 7 5 3 4 3 2 3 3 4 2 3 4 6 4 5 6 3 3 3 5 8 10 7 6 7 10 11 10 10 11 12 12 11 12 12 12 15 18 21 24 26 29 30 30 31 32 32 33 33 34 34 34 34 34 34 35 35 34 34 33 32 32 31 29 27 26 26 25 23 23 23 23 22 21 21 20
3 1 3 4 2 5 4 0 3 2 5 5 3 5 4 1 1 1 1 1 3 5 4 2 2 4 3 2 3 6 9 11 10 7 6 5 6 6 7 8 9 10 11 12 11 12 12 13 17 22 24 27 29 31 32 33 33 33 33 34 34 34 35 35 35 35 35 35 35 34 34 34 33 31 29 28 28 27 26 24 23 23 23 23 22 22
1 2 7 6 4 5 4 2 0 1 4 6 6 6 5 2 3 3 2 1 2 5 2 1 1 1 2 1 5 8 9 10 10 10 10 9 6 4 7 8 8 9 11 11 11 12 12 13 17 22 24 26 29 32 33 33 33 33 33 34 35 35 36 36 35 36 36 36 36 36 35 35 34 33 32 30 29 29 28 26 24 24 24 24 24 23
3 1 5 4 3 4 4 1 3 3 3 4 4 6 5 4 5 4 3 3 3 3 2 3 1 2 3 2 2 6 7 9 10 11 11 12 12 8 3 8 10 10 10 10 12 13 14 16 20 23 24 27 29 32 33 33 33 34 33 35 36 35 35 36 36 36 36 36 36 36 36 35 36 35 34 32 30 30 30 28 26 25 24 24 24 23
4 2 4 4 3 2 4 3 1 4 2 1 2 5 4 4 4 3 3 5 5 3 1 1 1 1 2 3 3 7 9 12 13 13 15 14 13 12 8 3 6 10 12 11 12 13 14 18 22 23 25 27 29 31 33 34 34 34 34 35 37 36 36 37 37 37 37 37 36 36 36 36 36 35 35 33 31 31 31 30 28 26 24 24 24 23
3 1 6 6 5 3 5 4 0 4 2 2 3 3 4 3 6 4 2 0 3 5 2 1 1 4 2 0 7 11 12 15 16 15 15 14 14 13 11 9 7 6 10 12 12 13 13 16 21 24 26 28 29 31 33 35 36 36 36 36 36 36 36 37 37 37 37 36 35 35 36 36 36 36 36 35 34 32 31 30 29 27 25 24 24 23
2 1 4 5 4 7 6 2 1 2 2 3 3 4 2 3 4 4 3 2 3 5 1 2 3 4 2 1 7 13 15 16 16 14 14 14 14 13 12 11 11 11 9 12 14 13 14 16 20 25 27 29 32 33 35 37 37 37 37 37 37 37 36 36 37 37 37 36 36 36 36 36 37 37 37 37 35 33 31 31 30 28 26 26 25 24
2 1 3 2 2 8 8 4 2 6 5 4 3 1 2 3 2 1 3 2 2 4 1 2 2 3 4 3 8 11 13 13 13 13 14 15 15 13 12 13 13 14 11 9 13 13 12 15 21 25 27 29 32 34 35 36 36 36 37 37 38 38 39 39 38 38 37 36 37 36 37 37 37 37 36 36 34 33 32 31 31 30 29 27 26 25
1 3 2 5 4 5 6 7 4 7 7 5 4 4 3 3 3 2 2 3 3 3 3 2 3 3 2 4 7 8 9 11 11 11 12 13 13 11 11 13 13 13 13 9 9 11 11 13 20 25 27 28 30 31 33 34 35 35 36 36 36 37 37 38 38 38 37 36 36 36 36 36 37 37 36 35 34 33 33 33 32 31 31 29 28 27
2 3 1 6 7 4 3 4 3 3 5 5 5 5 4 3 1 2 2 2 3 4 4 3 3 2 3 4 6 7 8 9 10 10 10 10 12 12 12 13 13 12 13 12 6 5 8 10 15 20 22 24 26 28 30 31 33 35 34 35 35 35 35 36 36 36 36 36 36 35 35 36 37 37 36 35 35 35 35 34 33 32 32 30 29 29
2 2 2 3 5 5 3 2 3 5 7 6 5 4 3 2 2 4 2 1 2 3 3 4 5 1 4 5 6 7 8 9 10 10 9 10 12 12 12 13 13 13 13 14 12 8 2 4 10 14 17 18 20 23 27 29 30 32 33 35 35 34 35 36 37 36 36 35 35 36 36 36 36 37 36 35 35 35 35 34 34 33 31 31 30 30
1 3 4 3 2 1 2 1 4 5 5 7 6 4 2 2 3 4 3 1 2 3 1 3 5 1 3 6 8 8 8 9 10 10 10 10 11 12 14 14 15 14 14 15 14 13 12 10 5 3 11 16 18 20 23 26 28 29 31 33 33 33 35 36 37 37 36 35 35 36 36 35 35 36 36 36 36 36 36 36 36 34 32 32 31 30
2 3 4 2 2 4 4 2 4 5 4 5 5 5 4 3 1 2 4 2 2 3 2 3 4 2 2 6 8 9 9 10 10 10 11 11 10 12 14 14 14 15 15 16 14 13 15 19 20 15 7 2 10 17 20 22 23 25 27 29 30 32 34 35 35 35 35 35 35 35 35 35 35 34 35 36 37 37 37 36 36 35 35 34 32 31
2 2 3 3 3 4 3 3 3 5 5 3 3 5 5 6 5 2 1 3 3 1 0 3 4 2 1 5 7 9 10 11 11 11 11 10 10 12 13 12 13 13 15 16 16 16 17 18 19 19 20 18 11 1 12 20 23 22 22 24 26 29 31 32 33 33 33 34 34 34 34 34 34 34 35 36 37 37 37 36 35 35 36 36 34 33
2 2 3 4 3 2 1 1 2 3 4 2 3 6 6 8 8 3 2 4 2 1 1 4 3 2 1 4 8 9 10 11 11 11 11 10 11 12 12 11 12 12 14 16 15 15 15 15 17 20 22 22 22 19 10 4 15 22 25 24 25 27 29 30 31 31 32 33 33 33 33 34 34 34 35 35 36 37 36 35 34 34 35 36 35 34
4 3 3 5 5 4 5 3 3 2 2 2 4 7 6 6 6 4 3 3 2 1 2 3 3 1 3 6 8 8 8 9 10 11 11 11 12 12 12 11 11 11 12 13 14 14 14 14 16 20 23 21 21 24 24 18 8 8 22 28 28 29 29 29 31 31 31 32 32 32 33 34 35 35 34 35 35 36 35 35 34 34 34 34 34 34
5 3 3 5 4 3 5 2 3 2 2 2 4 5 5 5 6 5 3 2 3 3 1 3 3 4 3 6 8 7 6 7 8 10 10 10 10 11 11 12 13 13 13 14 14 15 15 14 14 17 21 22 22 24 24 25 25 16 1 13 22 28 30 29 30 31 32 32 32 33 34 35 35 35 35 35 35 35 36 35 35 35 35 34 33 33
5 2 1 3 3 2 1 1 2 2 1 3 3 4 5 4 3 1 2 3 4 4 3 5 3 4 2 4 7 6 5 5 6 7 8 8 10 10 11 13 14 14 15 15 15 14 14 13 13 16 19 20 23 25 24 24 27 26 20 12 4 16 26 30 31 31 32 33 33 34 35 35 34 35 35 34 35 35 36 35 35 35 35 34 34 34
5 1 0 3 3 3 2 2 3 3 2 3 4 5 6 5 4 4 3 3 4 4 5 4 3 5 2 2 5 5 4 4 4 4 6 8 10 11 12 13 14 14 14 14 14 13 13 12 14 16 18 20 22 23 23 23 25 25 23 23 17 7 12 24 31 32 32 33 34 35 35 35 35 35 35 35 36 36 36 35 35 34 34 35 35 35
3 2 0 3 4 2 3 3 2 1 2 4 5 5 5 5 5 3 3 2 2 2 4 2 4 4 1 2 4 4 4 4 5 5 6 7 9 11 12 12 13 13 14 14 13 13 12 13 15 18 19 20 21 22 22 23 24 23 24 25 24 18 10 10 23 32 34 34 36 36 35 36 36 35 35 36 36 36 36 35 34 34 34 34 35 35
3 2 1 4 4 1 3 3 4 3 1 1 3 4 3 2 2 2 1 0 1 1 1 1 2 2 1 3 3 2 3 5 6 6 6 5 7 9 11 12 12 13 13 13 13 14 14 13 14 17 19 20 21 22 22 23 24 24 25 26 26 22 18 13 11 23 34 36 35 36 37 36 36 36 36 36 36 36 36 35 33 33 34 34 34 34
2 3 1 2 3 2 3 4 4 3 4 2 2 3 3 3 3 3 2 2 2 2 3 2 3 3 2 3 3 3 3 4 4 4 4 5 6 8 9 10 11 12 13 13 13 13 13 13 15 17 18 19 19 21 22 22 22 25 25 25 25 23 22 20 15 12 25 34 34 35 37 37 36 36 36 36 36 36 36 35 34 35 35 35 35 33
2 4 2 2 2 2 5 4 2 3 2 2 4 2 2 3 3 3 4 2 2 1 2 2 2 1 1 2 3 3 4 2 2 3 3 4 5 6 7 8 10 12 12 12 13 13 13 15 16 19 20 19 19 22 23 22 23 25 26 26 24 23 24 22 20 16 13 26 34 34 35 36 36 36 37 37 37 36 35 35 37 37 37 36 34 34
2 3 2 2 2 1 3 3 4 1 3 5 5 5 4 2 2 3 5 3 2 2 2 3 2 1 1 2 2 2 5 4 0 3 4 5 5 6 7 7 8 10 11 12 12 14 16 18 18 20 23 22 22 23 24 25 27 27 27 25 24 24 25 24 22 21 15 12 26 32 33 34 35 36 37 37 36 35 36 37 37 37 37 35 34 35
4 3 1 1 1 0 2 3 2 2 5 5 5 5 4 3 2 2 4 3 1 3 2 2 1 3 3 3 3 3 5 6 2 3 3 5 5 5 6 6 7 8 9 11 13 15 18 19 19 20 22 23 23 23 23 25 28 28 26 23 21 24 25 23 21 20 19 13 9 20 28 32 34 35 36 36 35 34 35 36 37 37 37 35 34 35
5 3 2 1 1 1 2 0 1 2 4 4 4 3 1 1 1 2 0 3 1 3 2 2 2 4 4 4 4 5 6 4 1 1 1 5 6 6 5 5 7 8 10 13 15 17 18 19 20 21 21 22 23 23 24 26 27 28 27 21 19 22 24 21 19 19 20 19 13 7 14 23 29 33 34 33 33 34 36 36 37 37 36 34 34 34
4 3 3 2 1 2 3 1 2 3 2 3 4 4 2 3 3 3 2 2 2 3 2 2 2 4 5 4 6 7 6 3 1 2 3 7 8 7 7 8 9 10 13 14 17 18 18 19 20 20 21 21 22 23 25 26 27 27 25 19 18 21 22 19 19 19 20 21 19 14 9 10 17 25 30 31 31 33 35 35 36 36 35 34 35 36
5 2 3 4 1 2 4 2 1 1 3 5 6 5 3 3 3 2 1 2 1 2 3 2 3 3 4 4 6 6 5 4 3 3 4 8 10 9 9 10 12 13 14 15 17 18 20 20 20 20 21 21 22 25 26 25 26 26 23 19 19 19 18 17 19 21 23 23 22 19 15 10 9 14 22 28 32 33 33 34 34 34 33 34 36 36
5 3 3 3 1 2 3 2 2 2 4 5 6 4 4 4 1 2 1 2 1 2 3 1 2 3 2 4 5 4 2 2 4 5 6 9 12 12 11 12 15 16 17 17 18 18 20 21 20 19 20 21 23 25 25 24 24 24 23 22 21 19 17 18 21 24 25 24 23 22 19 15 12 11 14 20 27 31 32 32 32 31 31 33 35 35
3 2 2 2 2 2 3 2 2 3 4 5 5 4 3 1 2 2 2 2 0 3 3 0 1 2 1 2 3 2 2 4 6 7 8 9 11 13 14 15 17 18 19 20 21 19 19 20 20 19 20 21 23 24 24 23 23 22 23 23 21 20 21 22 24 25 26 25 24 22 21 19 16 13 13 15 19 25 29 31 30 30 31 32 33 33
0 1 1 2 2 1 2 1 2 4 4 4 4 2 1 1 1 3 4 3 3 4 3 1 0 1 1 1 3 3 5 7 8 9 9 9 9 11 15 17 17 18 20 23 23 22 19 19 19 19 20 21 23 24 23 22 22 22 23 22 21 24 26 26 25 25 26 27 26 23 21 20 18 16 14 15 16 19 24 28 30 31 32 33 33 33
3 2 1 2 2 2 1 1 0 3 4 4 4 1 1 3 4 4 3 3 4 4 3 2 2 2 2 3 4 5 6 7 9 10 9 8 8 10 15 17 18 18 20 22 24 24 23 21 20 19 19 20 21 23 23 22 22 21 21 23 25 27 29 29 26 25 25 26 26 24 21 18 16 16 17 17 17 19 21 25 28 31 33 33 33 33
3 4 2 3 3 3 3 3 3 4 5 5 5 3 3 4 4 4 3 3 4 4 3 3 3 4 4 4 5 6 6 6 8 9 10 9 8 10 14 17 18 20 20 21 23 25 24 24 24 23 22 20 20 21 22 22 23 21 20 23 27 29 30 31 29 27 26 24 23 23 23 20 17 17 19 18 17 18 20 22 26 29 31 32 33 32
4 4 4 3 3 3 5 6 5 3 3 3 3 3 4 4 3 5 5 3 3 4 4 3 3 5 5 5 6 6 5 6 7 7 9 10 10 11 14 17 19 21 22 22 23 24 24 25 27 27 26 23 20 20 21 22 21 20 21 24 26 28 30 32 30 28 27 24 23 23 24 22 20 19 19 18 16 17 19 21 23 27 29 31 31 31
3 3 4 2 2 3 4 4 4 4 4 4 4 4 4 4 3 4 5 4 4 4 4 4 4 5 5 5 5 5 6 7 7 8 9 10 11 13 16 18 20 22 22 23 23 23 24 25 27 28 28 27 23 19 20 21 21 20 22 24 25 26 28 30 30 29 27 25 25 26 25 24 22 21 19 19 18 19 20 21 22 25 28 29 30 31
2 3 3 2 1 2 3 3 4 5 6 6 5 5 5 5 5 4 5 5 5 5 5 5 5 5 5 5 6 7 8 8 8 9 9 9 11 14 16 17 19 21 22 23 23 23 23 23 25 26 28 30 27 21 20 22 23 22 24 24 24 24 24 24 26 27 27 26 26 26 25 24 24 22 21 20 21 21 21 22 23 25 27 29 30 30
1 3 3 3 3 3 4 6 5 5 5 5 5 4 5 5 6 5 5 5 5 4 5 6 5 4 4 5 6 8 9 9 9 10 10 9 11 14 16 17 18 20 22 24 25 24 22 22 24 26 28 31 31 26 23 23 24 24 25 24 24 23 22 21 20 23 26 26 25 25 24 24 23 23 21 21 22 21 20 20 21 24 28 31 33 32
4 4 3 3 3 2 6 7 5 4 6 7 6 7 7 7 7 7 6 5 5 5 6 6 6 6 6 7 7 8 9 10 11 11 11 10 11 15 18 19 19 20 23 24 25 25 24 23 25 27 29 33 33 29 26 25 25 25 25 25 24 23 22 20 19 20 23 25 25 25 24 23 23 22 21 20 21 22 22 22 22 24 28 32 36 39
4 4 3 2 2 3 6 6 4 3 5 6 6 8 9 8 7 7 7 5 6 6 6 6 6 7 8 10 10 8 8 10 12 14 13 12 14 18 21 21 21 21 22 24 25 26 25 25 26 27 30 34 33 30 27 26 25 25 25 26 25 23 22 21 20 20 22 23 24 24 23 22 22 22 21 20 20 22 24 25 25 26 29 33 36 40
5 6 6 5 5 7 9 8 6 4 4 6 5 7 7 6 6 7 8 7 7 8 6 5 5 6 7 10 13 12 10 11 15 16 14 14 19 23 24 23 23 23 23 24 25 26 26 26 26 27 29 32 33 31 29 27 25 25 27 28 27 24 22 21 21 22 23 24 25 25 24 25 25 24 23 22 22 22 23 25 26 27 29 33 36 40
Wind_Direction
146 142 191 198 182 171 179 179 185 185 143 125 119 108 129 141 277 265 270 255 181 165 225 212 216 237 228 197 189 184 187 192 185 185 194 196 194 192 190 194 196 198 195 187 188 189 189 190 190 190 190 191 192 194 195 194 195 198 198 200 202 205 209 209 209 209 209 208 207 209 212 215 215 214 216 218 217 219 221 223 228 230 231 233 227 220
137 183 203 180 161 166 176 181 176 161 139 114 120 25 337 168 246 256 251 259 185 173 235 223 222 244 235 209 193 184 189 197 192 187 193 195 196 196 194 195 196 195 185 182 187 190 190 190 190 190 190 190 191 193 194 194 195 197 199 201 202 204 207 209 210 210 210 210 209 208 210 214 214 214 215 216 216 219 223 227 234 237 235 234 227 219
173 212 208 174 163 147 133 156 156 155 155 129 120 103 301 250 269 275 279 307 171 184 245 213 209 244 241 211 195 192 194 200 199 196 196 193 192 197 198 196 190 185 182 183 187 189 190 191 189 189 190 191 193 193 194 196 196 196 198 201 202 203 206 209 211 212 212 214 214 214 213 213 214 215 215 216 219 223 229 234 240 240 236 235 229 222
188 240 217 176 146 136 151 152 136 134 141 133 129 130 236 262 312 278 296 355 148 199 225 170 196 257 247 205 200 202 199 199 203 204 201 195 197 201 198 195 188 185 186 187 187 188 189 190 189 189 190 192 193 193 195 196 196 196 198 200 201 203 206 208 210 213 214 215 216 218 219 218 217 217 217 220 225 231 235 239 242 237 234 234 231 227
210 245 184 144 139 152 190 179 136 148 247 213 170 165 205 231 207 227 285 349 8 254 243 139 5 305 238 200 210 202 199 202 202 201 201 204 206 204 198 196 194 191 189 188 189 188 188 189 190 191 191 192 193 194 196 196 196 197 199 201 202 203 206 208 210 212 213 213 212 211 213 216 217 218 219 220 225 231 234 237 237 233 231 232 231 234
240 242 135 123 145 150 174 227 178 164 191 292 217 194 191 192 211 241 322 359 22 331 284 124 48 305 289 234 213 183 194 202 197 197 201 205 204 201 200 199 198 197 193 191 191 188 187 189 191 193 192 192 193 197 199 198 198 199 201 202 203 204 205 207 208 209 211 210 208 206 203 203 205 210 216 218 221 226 229 231 231 230 232 233 233 236
239 232 135 140 164 150 175 230 207 159 137 292 244 200 184 178 203 230 295 14 66 279 293 92 127 272 309 281 221 182 193 199 193 200 202 202 203 202 203 200 197 197 195 195 194 190 188 188 190 193 193 193 195 199 200 199 199 200 201 202 202 203 205 206 207 208 209 209 209 209 207 205 204 206 212 216 219 225 227 228 228 229 232 233 234 234
185 147 128 148 159 164 192 229 202 154 129 238 247 181 170 179 200 212 181 196 226 250 327 33 116 222 311 284 238 175 182 201 205 208 204 201 205 205 204 202 198 197 195 194 194 193 192 190 190 192 194 196 198 199 199 199 200 201 202 202 202 203 205 207 208 209 210 210 211 210 210 211 211 210 212 214 217 224 228 228 229 231 231 232 233 233
181 159 188 177 172 193 211 218 187 153 145 236 227 154 157 176 185 187 173 206 259 31 323 299 118 115 284 288 297 153 177 212 215 214 209 203 204 204 203 202 200 199 196 195 195 195 196 195 194 193 194 197 199 199 198 199 200 201 202 202 202 203 204 207 208 209 211 212 213 212 211 212 214 215 214 214 216 223 227 228 229 232 232 231 233 234
209 186 190 159 169 208 221 222 177 156 176 220 189 151 135 124 122 140 158 181 82 58 257 249 170 138 279 303 355 128 202 233 225 220 214 206 205 205 204 202 200 198 196 198 198 197 198 199 197 194 194 197 199 199 199 199 200 200 201 201 202 203 204 207 209 210 211 212 213 213 212 212 213 213 212 212 216 222 226 227 230 232 233 233 234 234
309 274 163 129 176 218 224 225 185 175 183 171 149 136 105 65 55 67 87 107 97 273 258 237 175 136 300 307 347 339 292 292 263 241 228 215 210 207 203 200 198 198 198 197 199 200 200 201 199 195 194 196 198 198 198 198 199 199 200 200 202 203 204 206 208 209 210 210 211 214 214 213 213 211 209 209 213 220 223 226 231 234 236 236 236 234
346 21 72 208 242 358 45 262 234 189 168 138 116 107 109 357 24 44 2 55 129 255 265 235 165 121 104 288 319 320 324 339 328 284 256 236 227 218 207 200 198 197 197 196 197 199 199 199 197 195 194 194 195 196 196 197 197 198 199 200 201 202 203 205 207 208 208 208 210 214 215 216 215 214 212 212 213 217 221 226 231 233 235 236 236 233
341 41 327 308 347 37 57 314 324 61 122 134 132 119 132 295 35 127 284 161 186 249 251 205 131 109 130 203 303 333 350 3 2 354 342 302 263 239 218 208 204 198 196 197 196 198 198 195 194 193 193 192 192 195 196 196 196 197 198 199 200 201 203 204 206 207 208 208 209 212 215 216 217 218 219 218 217 218 221 225 229 231 233 234 234 231
258 317 351 357 351 19 66 131 249 71 134 150 153 146 155 154 132 181 224 130 213 243 245 13 10 141 150 246 339 2 7 4 9 14 16 13 353 280 220 202 205 205 202 199 197 199 200 196 193 193 192 191 193 195 196 196 196 196 197 199 200 202 202 203 205 206 207 208 209 211 214 216 218 220 222 223 222 221 222 225 228 232 235 236 235 231
146 255 352 14 336 354 38 120 182 161 155 168 164 143 153 168 153 179 200 158 182 228 294 332 278 137 137 181 356 22 13 12 22 18 17 20 8 346 265 200 196 201 203 203 203 203 202 198 194 193 192 192 194 195 195 196 196 195 196 198 200 201 201 202 204 205 207 209 209 211 214 216 218 220 223 224 226 224 223 226 229 233 238 239 236 233
125 199 296 308 282 4 16 312 178 112 131 214 129 119 154 187 152 136 176 170 161 149 343 274 219 65 153 165 41 32 20 19 24 20 19 18 8 5 358 301 219 206 200 200 206 207 205 200 195 194 193 193 194 194 195 196 196 196 196 198 200 202 201 202 203 205 208 209 209 210 213 216 218 220 222 224 226 226 225 227 230 234 238 239 236 234
101 247 312 326 315 2 14 308 204 98 158 177 116 156 205 164 118 113 155 136 95 126 179 280 1 342 307 231 5 16 21 19 20 18 19 15 8 12 7 350 324 266 218 202 203 205 205 201 197 197 195 194 193 194 195 196 196 196 196 198 200 202 202 202 204 206 208 209 209 211 213 216 218 219 222 225 226 227 227 228 232 235 239 239 235 234
115 199 320 0 329 314 338 313 202 59 91 129 147 206 208 98 97 108 117 17 60 132 196 11 43 5 17 289 339 7 18 14 13 12 14 15 15 13 2 351 341 319 271 219 204 202 201 199 198 199 198 196 195 195 195 197 197 197 198 198 199 200 202 203 205 207 208 208 210 211 213 216 219 220 222 225 227 228 228 228 231 234 237 237 235 233
71 89 297 344 290 294 333 33 17 348 14 87 129 175 102 113 152 112 128 151 130 144 144 44 46 19 35 334 332 8 17 5 4 7 12 16 16 12 2 353 348 340 316 249 213 202 199 198 198 199 199 198 197 196 197 196 196 198 198 200 200 201 203 204 206 207 208 209 210 212 214 216 219 221 222 224 227 228 228 229 231 233 235 237 235 235
16 91 282 309 320 312 356 38 20 328 338 24 44 23 34 114 150 144 141 157 151 160 167 89 31 2 348 324 339 14 19 4 1 4 10 14 12 11 9 1 356 353 340 301 234 207 201 202 201 199 199 199 197 196 197 195 195 197 198 200 201 202 203 204 206 207 208 209 211 213 215 216 218 221 222 224 225 227 229 231 232 233 235 236 236 236
3 77 67 312 333 17 43 21 25 9 355 11 32 22 0 351 27 89 63 68 125 148 163 127 83 350 319 335 351 18 26 11 3 2 3 11 14 12 14 12 6 1 354 342 314 226 204 204 205 204 203 201 197 196 196 195 196 197 198 199 200 201 202 203 205 207 208 209 211 212 214 216 218 220 221 223 225 228 230 231 233 234 235 236 237 237
24 74 93 339 359 57 82 322 29 58 50 56 55 28 351 341 60 103 93 353 64 110 151 140 122 52 347 359 359 18 35 18 4 1 358 6 16 15 15 18 15 11 6 0 360 1 339 205 199 200 201 200 199 197 196 197 197 197 197 199 200 200 202 204 205 207 208 209 211 212 214 216 218 219 221 222 224 227 229 231 233 234 235 236 238 239
77 96 73 43 19 109 212 303 33 37 49 67 56 24 359 20 74 112 155 209 25 40 98 109 107 112 352 8 9 18 32 23 9 1 357 2 11 15 16 18 19 18 14 12 14 14 10 13 30 164 190 196 199 198 197 198 200 200 200 200 200 201 203 205 206 207 208 209 211 213 215 216 218 219 220 221 224 226 228 230 232 233 235 236 238 240
51 67 58 37 330 303 270 279 22 16 28 51 28 12 14 357 352 159 167 149 55 22 26 69 101 137 15 19 24 22 24 28 18 4 2 3 3 12 17 18 20 21 18 19 22 22 20 20 22 20 13 217 199 199 200 199 200 205 206 203 201 203 205 205 206 207 208 209 211 213 214 216 217 219 220 221 224 226 228 229 230 232 234 236 238 240
39 50 75 78 24 354 325 310 341 1 17 39 357 351 358 357 6 39 96 63 58 18 126 105 124 155 7 29 40 32 26 26 18 9 8 5 3 9 12 14 18 21 22 23 23 24 25 25 23 19 15 14 13 248 202 200 198 202 209 209 207 208 208 207 207 207 208 209 211 212 214 216 217 218 220 222 224 226 228 229 229 231 233 235 237 239
84 63 95 112 123 162 192 266 282 317 348 7 345 345 354 4 13 31 58 54 74 228 100 106 133 226 309 46 49 38 31 24 13 10 11 8 7 8 9 10 13 18 22 22 22 25 26 25 23 21 20 16 13 17 20 206 197 196 203 210 212 212 212 210 208 208 208 209 211 213 214 216 217 219 220 222 225 226 228 229 229 230 232 234 235 237
95 61 74 110 124 161 177 206 253 289 356 354 338 344 351 356 9 52 76 78 143 144 68 127 144 105 35 46 48 40 36 29 12 8 11 10 9 9 8 10 13 16 19 20 21 22 22 23 21 18 18 15 12 16 20 22 29 189 202 208 210 211 212 211 210 209 209 210 211 213 215 216 218 219 221 223 225 226 228 228 228 229 231 233 234 235
96 55 40 84 99 147 165 206 303 352 35 338 329 335 332 340 9 51 85 142 137 90 88 206 148 98 50 37 48 45 38 36 19 10 9 7 9 9 6 8 14 17 17 20 22 20 17 17 15 12 12 13 14 14 16 19 21 22 346 215 213 211 210 210 209 209 210 210 212 214 216 218 219 220 222 223 225 227 228 228 228 229 229 230 232 233
102 83 38 84 58 26 100 2 6 46 4 309 299 291 294 316 345 24 181 170 136 125 210 223 137 103 68 24 47 57 52 50 35 12 3 6 11 11 8 10 15 17 16 16 18 16 14 11 8 7 6 8 13 14 13 13 13 16 17 8 276 220 214 210 208 209 210 211 213 215 217 219 220 221 222 223 224 226 227 228 228 228 228 228 230 232
104 96 189 116 74 20 353 356 37 58 349 302 272 258 263 277 275 250 236 210 171 189 234 230 131 112 107 12 37 65 75 67 54 23 10 14 14 12 13 13 15 17 15 13 13 12 10 7 5 2 2 6 10 10 8 6 6 7 8 8 5 332 233 216 210 209 210 212 214 216 218 218 219 220 221 222 224 225 227 228 228 228 228 228 229 231
84 109 176 94 80 350 318 344 353 272 253 274 282 278 275 289 296 282 264 250 199 239 269 228 145 132 110 356 19 59 77 68 55 37 24 19 13 14 16 13 11 13 11 10 10 9 5 5 5 2 360 2 5 6 3 359 357 359 1 3 2 358 338 252 220 212 210 213 214 215 217 218 218 219 220 221 223 224 226 227 227 227 228 229 230 231
66 97 19 64 77 271 286 317 296 286 297 326 328 334 320 303 298 277 265 60 118 138 41 81 147 182 277 336 5 43 68 69 56 38 29 18 13 18 19 13 8 5 6 6 6 6 4 1 1 0 357 357 359 1 360 355 352 352 355 358 357 356 353 334 269 225 215 214 214 215 215 217 218 218 219 221 222 223 225 226 226 227 228 229 230 231
96 105 76 82 99 255 277 280 284 344 44 31 317 349 6 14 4 339 354 55 86 133 135 149 200 210 276 337 7 15 31 69 70 52 43 24 15 18 15 11 7 360 359 2 359 1 3 358 355 355 353 353 355 356 355 353 349 346 346 350 355 356 354 348 333 273 229 218 214 215 215 216 216 217 219 220 221 222 223 223 224 226 227 229 230 230
80 100 135 135 109 259 278 290 341 56 62 259 266 303 354 17 12 318 306 341 41 52 127 139 155 159 339 342 2 353 338 9 95 91 65 40 28 21 11 7 3 356 354 355 354 355 354 352 352 351 349 349 352 353 354 354 350 343 341 347 353 357 357 352 347 334 273 228 218 216 215 215 216 217 219 221 221 221 221 221 224 226 227 228 228 227
70 82 137 127 106 225 288 0 45 79 234 257 290 310 306 276 211 246 277 269 107 77 93 96 60 350 321 319 325 320 307 303 146 108 71 48 37 24 10 0 356 353 349 348 350 351 347 345 345 345 345 346 347 350 352 354 352 346 341 344 350 355 0 357 350 349 340 258 225 220 217 215 216 217 219 220 220 219 219 221 223 225 226 226 226 228
118 119 134 102 99 350 20 53 102 224 260 286 320 327 338 355 12 1 307 284 128 101 114 111 23 331 335 329 320 310 295 285 241 136 77 49 37 25 12 357 348 345 342 340 343 344 342 340 337 336 337 340 343 346 349 350 352 349 342 340 345 351 357 357 350 350 354 343 261 227 222 219 218 218 219 220 219 218 219 221 223 225 225 225 226 229
118 130 111 81 136 121 91 143 213 330 320 324 331 322 37 52 3 96 273 285 356 64 71 89 21 345 344 340 335 328 311 295 235 206 21 26 20 11 2 346 337 333 332 332 333 335 337 336 333 331 331 334 339 342 345 347 349 349 345 340 340 346 350 351 349 347 346 345 339 288 236 225 222 221 221 220 218 218 220 221 223 225 224 224 225 228
88 131 139 121 140 112 99 16 359 21 323 267 255 254 218 201 205 153 139 285 340 36 29 63 42 355 348 350 345 338 339 3 358 277 330 358 353 349 346 336 332 332 330 330 331 331 334 335 333 330 328 330 335 338 341 344 346 347 345 339 335 341 345 344 343 342 337 334 331 324 301 249 231 227 224 222 220 221 222 223 224 225 224 223 225 227
49 50 99 98 76 89 102 106 172 185 236 239 234 247 265 245 213 146 72 287 341 9 354 54 59 8 350 342 346 357 4 357 304 281 330 342 335 334 333 326 327 328 327 329 331 330 331 332 331 330 328 327 331 336 337 339 342 344 341 337 335 336 337 336 335 332 329 327 325 319 310 289 255 235 227 225 223 223 225 225 225 225 225 225 226 229
30 19 47 81 123 149 132 156 214 219 240 236 219 230 262 262 161 76 346 290 28 340 328 27 23 345 347 342 346 8 14 304 289 300 326 327 321 320 320 317 318 321 322 326 329 328 329 330 328 328 328 326 328 332 333 333 337 339 336 334 334 330 325 325 328 327 323 320 321 319 312 298 274 249 233 229 227 226 226 227 227 226 225 226 228 230
11 13 55 107 160 176 167 197 254 258 244 228 216 228 252 283 68 96 219 206 163 288 282 116 357 313 344 350 334 313 257 270 288 302 313 316 313 313 314 312 310 312 315 319 322 325 326 326 326 324 322 322 324 327 328 329 330 330 330 330 327 323 321 320 321 324 323 319 316 315 313 308 293 268 244 232 230 230 227 226 227 226 226 227 228 229
58 30 77 127 132 147 164 176 300 289 248 193 183 226 230 122 153 213 202 177 195 243 252 212 258 294 284 273 265 258 268 282 290 296 302 306 305 304 308 312 311 310 312 315 318 322 323 322 321 320 317 318 320 323 324 324 321 321 323 323 319 320 323 321 319 322 323 319 313 309 309 309 302 287 265 243 233 233 231 228 226 226 227 227 228 229
171 144 166 189 164 131 130 143 257 280 245 170 138 143 196 183 200 205 189 191 204 210 216 212 220 247 268 269 262 257 268 280 287 292 294 292 293 296 301 306 308 307 310 313 314 317 319 317 314 313 313 313 314 317 319 317 313 313 315 315 316 321 323 321 318 320 321 316 308 304 304 302 292 284 277 259 238 234 235 232 227 226 226 226 226 227
192 163 178 219 188 137 151 201 214 226 223 188 149 153 201 209 189 166 168 204 212 206 203 204 220 238 241 253 269 271 273 273 276 285 290 290 291 293 295 298 301 302 304 305 306 310 313 312 310 308 309 309 308 310 312 310 306 305 305 308 315 321 322 320 320 321 320 312 301 297 298 295 285 281 279 269 250 239 239 236 231 228 226 225 225 226
222 183 164 193 201 174 187 211 224 237 241 222 191 190 218 238 211 167 175 200 207 205 198 193 226 247 241 246 261 268 271 273 273 277 285 289 290 288 289 291 292 295 298 298 300 305 307 307 306 306 306 307 306 304 304 304 301 296 297 305 313 319 320 319 319 320 317 307 297 293 293 291 287 283 279 270 257 247 244 241 236 231 228 226 225 225
230 157 135 153 250 262 247 221 209 231 253 249 241 235 235 249 233 182 183 210 220 212 202 199 219 237 243 253 261 263 267 271 275 278 279 284 286 284 284 285 285 288 292 293 295 299 302 303 303 303 302 303 304 301 298 299 296 291 294 302 310 314 316 315 315 315 310 301 295 293 293 292 289 284 277 268 261 255 251 246 241 235 229 226 224 225
258 159 153 168 200 255 270 239 199 211 230 232 237 245 241 242 234 200 194 218 224 216 217 221 224 228 236 246 257 267 272 275 278 281 279 280 283 283 281 280 281 283 285 287 290 294 297 298 298 298 299 299 301 300 296 296 296 294 295 300 304 308 309 308 307 305 301 295 292 292 291 291 287 282 276 270 265 262 257 250 243 237 231 225 223 224
205 163 175 188 177 192 249 253 233 233 247 237 223 227 233 243 246 230 217 223 228 230 235 235 229 224 228 239 249 261 274 280 280 281 281 278 280 283 281 279 279 280 281 283 286 289 289 289 289 292 293 293 296 298 296 294 295 296 297 297 299 303 302 296 293 293 292 290 289 289 287 285 283 279 273 268 266 263 259 252 244 238 232 226 222 221
142 151 176 186 190 255 281 269 251 259 274 260 233 226 232 238 244 245 240 235 237 245 250 248 242 234 234 242 249 259 273 281 280 279 281 280 278 280 281 280 278 277 278 280 282 283 282 281 282 286 287 288 291 295 294 292 293 295 295 294 295 299 299 293 289 289 288 286 285 284 282 281 280 276 269 264 263 263 261 257 250 244 240 235 228 225
155 180 181 147 168 247 259 244 199 196 262 259 231 226 230 226 224 235 244 247 247 249 252 257 259 253 249 254 259 263 269 277 281 281 279 278 277 279 280 279 278 276 275 277 279 279 277 276 277 280 281 283 288 291 291 290 291 293 293 292 292 295 295 294 292 289 285 282 281 280 280 280 279 277 272 265 262 263 266 266 261 254 248 244 239 235
188 190 176 177 204 229 236 224 182 170 237 250 226 220 224 209 197 216 233 239 244 246 242 245 261 270 272 273 273 273 272 275 280 281 279 278 279 279 279 279 278 276 275 274 274 274 274 274 274 274 275 279 284 287 287 288 289 291 292 292 292 293 293 293 292 288 284 282 280 279 279 278 277 277 275 270 266 267 270 274 275 269 259 251 245 242
Height
770 782 788 787 788 787 786 785 784 784 785 787 791 793 797 799 795 786 783 777 776 789 794 790 792 790 787 787 785 783 784 786 789 790 792 792 791 792 793 794 794 795 794 795 798 801 803 806 808 810 812 815 817 819 821 823 825 827 830 832 834 837 839 841 843 845 846 847 848 850 851 853 854 856 858 859 861 862 863 865 866 866 867 868 869 870
772 785 787 781 782 781 781 782 781 784 786 788 791 794 796 799 794 784 782 777 775 788 792 786 791 791 785 785 783 782 785 786 786 787 788 788 790 790 790 792 792 793 794 795 798 800 802 805 807 810 811 814 816 818 820 822 824 826 828 830 833 835 838 840 842 843 844 846 847 849 850 852 854 855 857 858 860 861 863 864 865 866 867 868 868 869
781 785 781 777 778 778 781 782 782 785 786 789 792 796 798 796 791 785 781 778 777 787 790 786 793 791 782 782 782 780 782 782 780 781 782 783 787 788 788 789 791 793 794 795 796 798 801 803 805 808 810 812 814 816 819 820 822 825 827 829 831 834 836 838 840 842 844 845 847 849 850 852 854 855 857 858 860 861 862 863 864 865 866 867 868 869
789 783 775 774 776 779 782 782 783 786 787 791 793 797 798 793 792 790 784 781 781 784 785 785 790 788 782 781 781 778 776 777 777 777 779 781 783 783 784 786 789 792 793 794 795 796 798 801 804 806 808 810 813 815 817 819 821 823 825 827 830 832 834 836 839 841 844 846 847 849 851 852 854 855 857 858 859 860 861 862 863 864 865 866 867 869
783 775 769 773 776 779 782 783 785 788 791 792 791 794 795 791 791 791 786 783 782 781 779 785 793 790 785 786 783 778 776 777 777 778 781 781 780 782 783 785 786 788 790 792 793 794 796 799 801 804 806 809 811 813 814 816 819 821 823 825 828 830 833 835 838 840 843 845 847 849 851 852 854 855 856 857 858 859 860 861 862 863 864 866 867 868
777 769 767 773 777 779 782 784 784 787 793 794 788 787 788 787 788 788 787 787 791 791 781 785 802 800 790 790 787 781 780 780 779 779 782 781 780 782 784 784 784 785 786 788 789 791 793 796 799 802 804 807 809 810 812 815 817 819 822 824 826 829 831 834 836 839 842 844 846 847 848 850 851 853 854 855 856 858 859 860 861 863 864 865 866 867
772 767 766 772 776 779 783 785 782 783 795 799 786 779 781 784 787 788 789 792 798 797 783 783 800 804 795 792 787 782 783 783 781 780 780 780 780 781 781 781 782 783 784 785 787 789 791 794 797 799 801 804 806 808 811 814 816 818 820 823 825 827 830 832 835 837 840 842 844 846 847 847 848 849 851 853 856 857 858 860 861 862 863 864 866 867
767 767 769 771 775 780 784 785 780 778 792 797 781 777 782 782 785 789 790 794 794 792 788 785 793 803 800 792 786 783 787 787 783 781 779 777 777 777 778 778 778 780 781 783 785 786 788 790 793 796 798 801 804 807 810 812 815 817 819 821 823 826 828 831 833 835 838 840 842 844 846 847 848 849 850 853 855 857 858 859 860 862 863 864 865 866
763 767 769 770 776 782 781 778 773 775 787 787 775 776 779 779 783 786 788 794 793 794 800 793 792 805 804 792 787 786 789 792 785 779 777 773 773 773 774 775 775 776 777 779 782 783 784 787 789 792 795 799 802 804 807 810 812 815 818 820 822 825 827 829 832 833 836 838 841 843 845 846 847 848 850 853 854 856 857 858 860 861 862 863 865 866
762 763 763 766 775 777 771 768 768 774 780 776 772 774 775 778 782 785 789 791 793 801 802 793 792 803 805 799 797 796 795 793 783 775 772 770 769 770 771 772 772 774 775 776 778 779 781 784 786 790 793 796 799 802 805 808 811 814 816 819 821 823 825 827 830 832 834 836 839 841 843 844 846 848 850 852 853 855 856 857 859 860 861 862 864 865
762 760 760 764 769 767 764 763 764 768 771 770 773 777 779 783 783 786 791 789 799 808 796 790 792 795 805 809 806 803 798 790 783 777 773 769 767 766 767 769 770 772 773 774 776 777 779 782 785 788 791 794 797 800 803 806 809 811 814 816 819 821 823 825 828 830 832 835 837 839 841 843 845 846 848 850 851 853 854 856 857 859 860 861 863 864
763 762 764 764 763 763 763 763 763 763 766 770 776 779 786 793 791 794 797 794 810 813 792 792 792 789 808 819 809 802 794 786 783 780 776 772 769 767 767 767 768 769 771 772 774 776 778 780 783 786 788 791 795 798 800 803 806 809 811 814 817 819 822 824 826 828 830 833 835 837 839 841 843 845 846 848 849 851 853 854 856 858 859 860 862 863
768 767 767 764 762 763 766 766 765 767 770 774 780 784 795 807 808 811 812 809 815 806 791 796 794 791 811 817 805 799 792 785 783 779 776 774 771 769 769 768 767 767 768 770 772 773 775 777 780 782 785 789 792 794 797 800 803 806 809 812 814 817 820 822 824 827 829 830 832 835 838 840 842 843 844 846 847 849 851 853 855 856 858 859 860 861
776 772 768 767 765 764 768 769 770 773 775 778 782 787 800 812 817 824 826 822 817 800 790 795 793 795 810 810 800 796 792 787 782 779 776 774 772 769 766 766 768 768 768 768 769 770 771 773 776 779 782 785 788 790 793 797 800 803 806 809 812 814 817 820 822 825 827 829 831 833 836 838 840 842 843 844 846 848 850 851 853 855 856 858 859 860
788 785 777 775 773 768 769 771 773 776 777 776 774 778 790 797 804 815 818 816 813 802 794 795 793 798 810 808 797 792 790 785 781 779 776 774 772 768 763 762 763 765 766 766 766 766 766 768 772 775 778 781 784 787 790 794 797 800 803 806 809 812 815 818 820 823 825 827 829 831 834 836 838 840 841 843 845 847 848 850 852 853 855 856 858 859
793 792 781 775 774 771 773 772 770 774 777 776 772 775 785 783 784 798 805 801 800 802 801 797 796 799 802 797 789 788 788 784 782 780 777 776 775 771 768 766 763 761 761 762 764 764 764 765 769 772 775 778 781 784 787 790 793 796 800 803 806 809 812 815 818 820 822 825 827 830 832 834 836 838 840 841 843 845 847 849 850 852 854 855 857 859
796 793 783 777 772 769 772 772 768 773 777 775 776 780 783 777 776 789 803 802 796 801 807 804 805 805 800 793 788 789 790 786 785 784 782 782 779 776 775 773 769 764 759 758 759 760 762 763 766 768 771 774 776 780 783 786 789 793 796 800 803 807 810 813 815 818 820 823 825 827 830 832 834 836 838 839 841 843 845 847 849 850 852 854 856 858
797 793 786 784 779 770 769 770 767 769 772 774 778 779 778 779 780 784 799 808 804 806 814 818 821 821 815 808 797 794 797 795 792 790 788 786 782 781 780 776 773 768 760 755 753 755 757 759 762 764 766 769 772 775 778 782 786 790 793 796 800 803 807 810 813 815 818 821 823 825 827 830 832 833 835 837 839 841 843 845 847 849 851 852 854 856
798 796 789 786 785 779 769 769 772 771 770 773 776 777 779 785 788 786 796 808 808 813 823 826 827 826 824 820 810 805 806 803 800 796 792 790 788 787 784 779 774 769 762 755 751 752 753 754 757 760 763 766 769 773 776 779 784 787 791 794 796 800 803 806 810 813 816 818 820 822 824 827 829 831 834 836 837 839 841 843 845 847 849 851 853 855
798 799 795 785 783 784 779 784 797 794 781 775 777 781 785 787 788 789 793 797 800 813 827 828 831 830 822 818 813 811 811 807 805 803 798 796 793 790 787 782 777 772 766 757 751 750 751 751 754 757 760 764 767 771 775 778 781 784 787 791 794 798 801 804 807 809 812 815 818 820 822 824 827 829 832 834 836 837 838 840 843 844 847 849 851 853
798 800 802 793 785 792 799 805 813 810 799 794 796 801 802 798 793 792 797 801 799 806 816 823 837 838 819 811 812 810 809 808 807 805 802 799 796 792 789 785 780 776 769 761 754 751 752 753 756 758 761 764 767 771 774 776 779 782 785 789 792 795 799 801 805 807 810 813 815 818 820 822 824 827 830 832 834 835 836 838 840 842 845 847 849 852
802 803 805 806 804 810 815 812 808 808 807 807 810 815 814 809 803 797 801 809 806 807 811 818 837 841 821 812 813 809 808 808 806 806 803 800 797 794 790 786 783 779 773 768 761 756 755 755 757 760 762 765 768 770 773 776 778 780 783 786 789 792 795 798 801 805 807 810 813 815 817 820 822 824 827 830 831 833 834 836 837 840 842 845 847 849
803 807 809 815 819 818 816 811 807 806 806 807 811 815 814 813 813 807 804 809 812 816 816 816 834 840 823 815 815 810 810 809 807 806 804 800 797 793 790 786 783 781 777 773 768 765 763 761 760 761 762 765 768 770 773 776 778 780 781 784 787 790 792 795 799 802 805 808 810 812 815 818 820 822 825 827 829 830 832 833 835 837 839 842 844 847
804 813 814 816 819 816 810 809 810 808 809 812 815 816 815 815 818 815 811 813 817 824 820 816 832 839 824 817 818 814 812 811 810 809 806 803 799 794 792 789 787 785 782 777 774 772 770 768 766 766 766 766 767 769 772 774 778 781 783 784 786 788 791 794 797 800 803 805 808 810 813 815 817 820 822 823 825 827 829 831 833 835 837 839 841 844
808 821 819 815 822 823 815 812 813 814 819 823 823 821 819 817 815 813 813 814 819 829 828 822 832 838 826 820 822 820 818 816 815 812 810 808 804 798 796 794 792 790 787 783 780 777 776 775 775 775 773 771 770 770 771 773 777 781 784 786 788 789 791 793 796 798 801 803 806 808 810 812 815 817 818 820 822 824 827 829 831 832 834 836 838 841
812 827 823 815 820 826 825 825 825 827 830 829 828 825 821 819 818 815 817 818 821 829 830 825 830 835 827 823 826 827 825 823 821 817 814 812 808 804 802 799 797 794 792 789 786 784 783 783 782 781 779 777 775 774 773 773 776 779 782 785 788 789 791 793 795 797 799 801 804 806 808 810 812 814 816 818 820 822 824 827 829 830 832 833 835 837
817 830 829 823 822 826 833 835 832 834 835 833 832 829 824 823 822 819 821 825 826 827 827 827 831 834 832 829 830 831 830 829 827 822 818 815 811 808 806 804 802 800 797 794 791 789 788 788 787 786 784 782 780 778 777 776 777 778 779 781 784 786 788 790 793 795 797 799 801 803 805 807 809 811 813 815 817 819 822 824 826 827 829 831 833 835
820 830 831 830 831 832 834 835 832 833 835 834 834 831 828 826 824 822 823 825 827 827 827 828 830 833 835 832 831 833 832 832 831 827 823 819 815 812 810 808 806 803 800 798 796 794 793 792 791 790 788 786 784 782 780 779 779 779 779 780 781 783 784 787 790 792 794 796 798 799 801 803 806 808 810 812 814 816 818 820 822 824 826 828 829 831
821 832 832 831 834 835 834 834 833 833 834 834 833 831 829 827 825 825 825 824 825 825 824 824 827 833 836 833 831 832 832 831 831 829 825 822 818 816 814 812 809 807 805 803 801 800 798 797 795 793 792 790 787 785 783 783 782 780 780 780 781 782 783 784 786 788 791 792 794 795 797 800 802 804 807 809 811 813 815 817 819 821 823 824 825 827
822 831 832 831 835 836 835 835 835 834 834 833 830 828 828 827 826 826 826 825 825 825 822 821 825 833 836 834 831 830 830 830 830 829 827 825 822 820 817 816 813 811 809 807 805 803 802 800 798 797 795 793 790 788 787 786 785 783 782 781 780 781 782 783 784 785 787 788 790 792 794 796 799 801 803 805 807 809 811 813 816 818 819 821 822 824
823 831 832 832 836 838 838 837 836 835 835 833 830 829 829 829 828 828 827 826 826 826 825 823 826 833 834 832 831 830 830 831 831 831 830 828 826 823 821 819 817 814 813 810 808 806 804 802 800 799 797 795 793 792 790 789 787 786 784 783 781 781 781 782 782 781 782 784 786 788 791 792 795 797 799 801 803 805 807 810 812 815 816 818 819 821
823 831 834 833 835 839 840 839 836 834 835 835 833 830 830 829 828 827 826 828 828 828 829 826 827 831 834 832 832 831 831 832 833 833 832 831 829 827 825 823 820 817 814 812 810 808 806 804 802 801 800 798 796 794 792 791 789 788 786 784 782 781 781 780 780 780 779 780 782 785 786 788 791 793 795 797 799 801 804 807 809 811 813 814 816 818
827 830 834 836 836 838 841 839 836 833 834 836 834 831 830 829 829 828 826 828 831 830 828 827 828 832 835 833 832 832 832 833 834 833 833 832 830 828 827 825 822 819 816 814 812 810 808 807 805 804 802 801 799 796 794 793 791 789 788 786 784 782 781 780 779 779 778 778 779 781 782 785 787 789 791 793 795 797 800 803 805 806 808 810 812 814
829 829 835 838 837 839 841 837 834 833 833 834 833 832 831 831 830 830 827 829 832 831 828 828 830 833 835 833 833 833 832 832 832 832 831 831 830 829 827 825 823 821 818 815 813 811 809 808 807 805 803 802 801 798 796 794 792 790 789 787 785 783 781 780 779 778 777 776 777 778 779 782 783 785 787 789 791 793 796 798 799 801 803 805 808 810
830 830 835 839 838 839 840 834 831 834 835 833 832 832 831 830 830 830 828 828 832 832 830 831 834 835 835 834 834 834 832 830 830 830 830 829 828 828 827 826 824 822 820 817 814 812 811 809 807 806 804 802 801 799 797 794 793 791 790 788 786 783 781 780 779 778 777 776 776 777 777 779 780 781 783 785 787 790 791 793 795 796 798 801 803 804
830 831 834 839 838 839 841 836 832 836 838 834 833 834 833 831 831 832 829 827 831 834 832 833 835 835 834 834 833 833 831 829 828 829 828 828 827 827 827 826 825 823 821 818 816 814 813 811 809 807 805 803 801 800 798 795 793 792 790 789 787 784 781 780 780 778 777 776 776 776 776 777 777 778 779 781 784 786 787 789 790 792 794 797 798 800
830 831 833 839 840 841 845 845 840 840 839 836 837 839 837 836 836 837 835 832 834 837 836 835 836 836 835 834 833 832 829 826 827 828 826 826 826 826 826 825 824 823 821 819 817 815 814 812 810 807 805 803 801 800 798 796 793 792 790 790 788 785 782 781 780 779 778 777 776 776 775 775 775 776 777 779 781 782 783 784 786 788 790 793 794 796
832 832 832 835 840 842 844 847 846 843 840 840 840 838 837 838 838 839 838 836 837 840 839 837 837 837 835 834 833 831 827 825 826 826 825 825 824 824 824 824 823 822 820 818 817 815 813 812 810 808 806 803 801 800 798 796 793 791 790 790 789 785 782 780 780 779 778 777 776 775 774 774 773 773 774 776 777 778 779 780 782 784 786 788 789 790
836 837 835 836 841 844 845 847 849 845 840 839 838 835 836 838 837 838 838 837 838 841 840 838 838 838 837 836 834 832 831 830 829 827 826 825 823 822 822 821 820 820 819 818 817 815 813 811 809 807 806 803 801 799 798 796 793 791 790 790 789 786 783 781 780 779 779 777 776 775 773 772 771 771 771 772 773 774 776 777 779 781 783 784 785 786
839 839 838 840 842 844 845 848 848 844 837 834 834 835 836 835 835 838 838 836 838 842 840 838 839 839 838 837 836 836 835 835 832 829 827 826 824 823 822 820 819 818 817 816 816 814 812 810 808 806 804 802 800 798 797 796 793 791 790 790 789 787 784 782 780 779 779 777 775 773 772 771 770 769 769 769 769 770 772 774 776 778 779 780 781 782
851 848 846 846 847 847 846 849 851 844 835 831 832 834 834 833 835 840 839 838 840 841 840 839 839 839 839 839 839 838 836 834 832 829 828 827 825 823 822 820 819 817 816 815 814 813 811 810 808 806 804 802 800 798 797 795 793 791 790 789 788 786 784 782 780 778 777 776 774 772 770 769 769 767 766 766 767 768 769 770 772 774 775 776 777 778
853 854 853 853 854 852 849 852 855 844 831 828 831 832 832 834 836 837 837 839 841 839 838 839 838 838 839 839 839 838 835 832 831 829 827 826 825 823 821 819 818 816 815 813 811 811 810 808 807 805 803 801 799 797 796 795 793 791 790 788 787 786 784 781 779 777 775 773 771 770 768 768 768 766 765 764 764 765 765 766 768 769 770 772 773 774
842 846 851 856 856 855 856 860 856 840 828 828 830 831 832 832 833 834 836 839 839 836 836 837 837 837 837 837 837 836 834 832 830 828 826 825 824 822 820 819 817 815 813 812 810 809 808 806 805 804 803 801 798 795 795 794 793 791 790 787 786 784 782 780 778 776 773 772 769 767 766 767 766 765 763 762 762 762 762 763 764 765 765 767 768 769
838 840 847 850 848 849 855 855 843 829 825 827 827 827 828 828 829 832 833 834 834 835 835 835 835 835 835 835 834 833 832 831 829 827 825 824 823 822 820 818 817 815 813 811 809 808 806 804 802 800 800 800 798 795 794 794 792 790 789 786 784 782 780 778 777 774 771 770 768 765 764 765 764 763 761 760 759 759 759 759 760 761 761 762 763 764
832 835 838 839 838 839 839 835 830 828 829 829 825 824 825 825 827 830 830 830 832 833 833 833 833 833 833 833 832 832 831 830 828 827 825 822 821 820 819 817 815 814 812 810 808 807 805 803 799 797 795 795 795 794 793 793 792 789 786 784 782 780 778 776 774 770 768 768 767 764 761 760 760 760 759 757 756 756 755 756 756 757 757 758 758 759
832 835 835 833 834 834 829 826 829 830 829 827 826 825 825 825 826 827 828 828 829 829 830 831 831 830 830 830 830 830 828 827 826 825 824 821 819 817 816 815 813 812 810 808 807 805 804 801 798 795 791 790 792 793 792 791 790 787 784 782 781 779 778 775 771 768 767 767 766 763 760 757 755 755 755 754 753 752 752 752 752 752 752 753 754 754
833 834 833 833 834 832 826 823 827 827 825 826 826 825 825 825 825 826 826 826 826 826 827 828 828 828 829 828 828 827 825 824 824 823 821 819 816 814 814 812 811 809 808 806 805 804 803 800 797 793 790 786 786 789 790 788 786 784 781 780 779 779 778 776 772 769 768 767 765 762 759 756 753 752 751 750 749 749 748 747 747 747 747 747 748 748
829 830 832 832 834 831 824 821 824 826 825 825 825 824 824 823 823 823 824 823 823 824 824 824 825 826 826 826 825 824 822 822 821 820 818 816 813 811 810 809 808 807 805 804 803 802 801 799 796 793 789 784 782 784 785 783 781 779 778 778 778 777 777 776 773 770 768 766 763 760 758 755 753 751 749 747 745 744 743 742 742 742 741 740 741 741
827 829 830 831 832 831 825 820 822 824 822 821 822 822 821 820 820 821 821 821 822 822 822 823 823 823 823 823 822 822 820 819 818 816 815 813 810 808 807 806 805 804 802 801 800 799 798 797 794 791 788 782 780 780 780 779 777 776 776 776 776 775 773 771 770 768 766 764 762 758 755 753 751 749 747 744 742 740 739 737 737 737 735 734 734 734
826 826 828 830 830 828 821 814 815 818 815 813 815 816 816 817 819 819 819 820 820 820 820 820 820 820 821 820 820 819 818 816 814 813 811 809 807 805 803 802 801 800 799 798 797 795 795 793 791 789 785 781 778 777 776 775 774 773 773 774 774 772 770 767 765 765 764 762 760 756 752 749 747 745 744 742 739 737 734 732 731 731 730 729 729 729
818 816 820 822 819 815 810 808 812 814 811 809 811 812 813 814 816 817 817 817 817 817 818 818 818 818 818 817 817 816 815 812 811 810 807 804 803 801 799 798 797 795 795 794 793 791 790 789 788 786 783 778 776 774 773 772 771 770 769 769 769 768 766 764 762 761 760 759 756 752 749 746 743 741 740 738 736 734 731 728 726 725 724 724 725 725